Probability
16 16 10 10 0 0 0 0 0 0 0 0 0 0 0 0 0 0 0 13 29 65 90 97 100 100 100 100 100 100 100 100 100 100 100 100 100 100 100 100 100 97 97 97 97 97 97 100 97
13 13 0 0 0 0 0 0 0 0 0 0 0 3 13 19 13 13 13 32 58 74 84 94 100 100 100 100 100 100 100 100 100 100 100 100 100 100 100 97 100 100 94 94 90 94 97 97 97
0 0 0 0 0 0 0 0 3 3 3 3 3 13 16 23 19 16 29 48 68 71 81 100 100 100 100 100 100 100 100 100 100 100 100 100 100 100 97 97 94 97 94 87 90 94 97 97 97
0 3 3 0 0 0 0 3 3 0 0 0 10 19 23 32 32 39 55 58 68 84 94 100 100 100 100 100 100 100 100 100 100 100 100 100 100 100 97 97 97 97 87 87 94 94 97 97 94
3 3 0 0 0 0 0 0 0 0 3 10 19 19 19 48 48 48 65 71 77 84 94 100 100 100 100 100 100 100 100 100 100 100 100 100 100 100 97 97 97 97 94 90 94 94 94 90 87
0 0 0 0 0 0 0 0 0 3 10 26 29 19 19 55 52 61 65 65 84 84 97 100 100 100 100 100 100 100 100 100 100 100 100 100 100 100 97 97 94 97 90 94 90 87 90 90 84
0 0 0 0 0 0 0 0 0 6 13 23 26 19 32 55 58 61 65 74 81 90 97 100 100 100 100 100 100 100 100 100 100 100 100 100 100 100 97 97 97 94 87 87 87 81 81 87 84
0 0 0 0 0 0 0 0 3 3 10 26 29 19 19 45 55 61 74 81 87 87 94 94 97 100 100 100 100 100 100 100 100 100 100 100 100 97 97 97 100 97 90 84 84 77 81 81 84
0 0 0 0 0 0 0 0 6 3 16 13 23 19 26 52 58 68 77 87 90 87 87 84 94 97 100 100 100 100 100 100 100 100 100 100 94 97 97 97 97 94 87 84 77 81 81 81 74
0 0 0 0 0 0 0 0 0 0 10 19 35 45 48 61 52 48 55 61 87 87 87 84 90 90 90 97 97 100 100 100 100 97 94 77 77 74 90 97 97 97 90 87 84 81 81 45 26
0 0 0 0 0 0 0 0 6 3 10 13 32 48 61 55 52 39 35 39 58 81 87 87 87 90 87 87 94 94 94 90 97 90 84 58 45 65 74 71 77 71 77 65 65 55 39 35 23
0 0 0 0 0 0 0 0 6 0 3 16 39 61 68 68 55 45 32 39 52 68 87 87 84 84 84 84 90 87 77 74 71 71 68 52 39 45 48 52 55 48 35 29 29 23 16 16 10
0 0 0 0 0 0 0 0 3 3 13 35 61 71 74 68 68 52 35 42 48 71 74 84 81 77 77 71 77 84 71 65 58 52 45 39 35 35 29 32 26 29 23 13 10 10 13 10 10
0 0 0 0 0 0 0 3 10 10 23 48 71 77 77 81 68 61 61 42 45 48 58 68 77 77 71 65 68 71 65 58 52 45 39 35 32 26 19 16 16 16 16 6 6 10 10 6 3
0 0 0 0 0 0 3 3 6 13 29 48 65 74 77 74 65 65 61 65 52 45 45 55 65 68 61 55 55 61 52 52 55 48 35 39 26 19 13 10 6 10 13 6 6 3 3 3 3
0 0 0 0 0 0 0 0 3 13 26 42 48 61 71 68 68 74 71 65 52 45 35 45 65 61 58 45 42 48 52 61 52 45 39 42 39 19 10 10 10 6 10 6 6 3 3 3 3
0 0 0 0 0 0 0 0 3 16 26 35 45 45 48 61 58 52 61 68 55 61 39 39 42 52 42 42 35 39 48 58 45 35 35 35 35 19 10 10 10 10 3 3 6 0 3 3 0
0 0 0 0 0 0 3 3 6 16 23 35 42 42 42 45 52 58 55 55 61 52 48 42 48 45 32 35 29 26 35 48 48 32 26 26 29 23 10 10 10 6 3 6 3 10 3 0 0
0 0 0 0 0 0 3 3 3 13 19 26 26 29 35 48 55 55 52 65 61 58 42 45 42 39 35 39 39 35 35 35 32 32 29 23 23 23 16 10 10 10 10 6 6 6 6 6 0
0 0 0 0 0 0 0 3 0 16 19 19 19 26 29 35 42 45 52 48 61 52 48 48 39 35 35 35 39 39 35 29 29 35 32 29 26 26 19 10 10 13 13 10 6 6 6 6 3
0 0 0 0 0 0 0 3 3 3 16 26 26 29 29 35 39 45 45 45 48 48 52 52 39 42 35 32 29 42 29 26 19 26 32 26 29 19 19 13 6 6 10 10 6 6 6 6 3
0 0 0 0 0 0 0 0 0 3 6 19 26 23 32 48 45 35 48 52 52 42 39 42 42 48 45 32 35 39 42 35 32 29 26 23 23 29 19 13 6 6 10 10 6 6 6 6 3
0 0 0 0 0 0 0 0 0 0 6 13 16 29 42 52 48 42 48 48 45 48 42 39 42 48 42 39 39 39 35 32 19 13 13 13 16 19 16 16 13 6 6 6 6 6 6 6 6
0 0 0 0 0 0 0 0 0 3 6 6 16 29 32 39 39 42 45 48 48 45 55 45 45 42 39 42 39 39 32 19 10 6 10 10 10 16 13 19 10 6 10 6 6 6 6 6 3
0 0 0 0 0 0 0 0 3 3 3 6 10 19 29 52 42 39 39 42 42 45 58 52 52 42 35 39 39 35 32 19 16 16 6 6 6 6 6 10 6 6 6 3 3 3 6 6 3
0 0 0 0 0 0 0 0 3 13 13 16 19 23 35 48 35 35 35 39 45 52 52 52 48 45 45 39 32 35 29 19 19 10 6 6 10 6 6 3 3 3 3 3 3 3 3 3 3
0 0 0 0 0 0 0 0 6 13 16 19 19 29 32 39 32 39 39 32 45 55 48 45 42 42 39 42 35 32 23 16 13 13 6 6 3 0 3 3 3 3 3 3 3 3 3 3 3
0 0 0 0 0 0 0 0 0 16 16 13 19 26 29 29 42 39 39 42 42 48 42 39 35 35 32 29 32 32 26 16 16 16 10 6 6 6 6 3 3 3 3 3 3 3 3 3 3
0 0 0 0 0 0 0 0 0 3 16 13 16 16 13 23 39 42 39 42 45 42 42 39 32 26 26 26 23 29 23 16 13 13 16 6 6 6 3 3 3 3 3 3 3 3 6 6 6
0 0 0 0 0 0 0 0 3 0 10 3 10 13 19 23 32 35 39 39 39 39 39 39 35 29 23 19 23 26 19 13 13 10 10 10 10 3 3 3 3 3 3 3 3 3 6 6 3
Height
5891 5891 5892 5892 5893 5891 5890 5889 5888 5888 5888 5888 5888 5887 5887 5888 5889 5891 5890 5889 5889 5890 5890 5890 5890 5890 5891 5891 5892 5893 5893 5894 5894 5895 5896 5896 5896 5897 5897 5897 5897 5897 5897 5897 5897 5897 5897 5897 5898
5893 5894 5895 5894 5893 5892 5892 5891 5891 5890 5890 5890 5889 5889 5889 5889 5889 5889 5889 5890 5890 5891 5891 5891 5891 5891 5892 5892 5893 5894 5894 5895 5896 5896 5897 5897 5898 5898 5898 5898 5898 5898 5898 5898 5898 5898 5899 5898 5899
5895 5896 5897 5896 5895 5895 5894 5893 5893 5893 5892 5892 5891 5890 5890 5890 5890 5890 5891 5891 5891 5892 5892 5892 5892 5892 5893 5893 5893 5894 5895 5896 5896 5897 5898 5898 5899 5899 5899 5899 5899 5899 5899 5899 5899 5899 5899 5899 5900
5897 5898 5898 5898 5897 5897 5896 5895 5895 5895 5894 5893 5893 5892 5892 5892 5892 5892 5891 5892 5892 5893 5893 5893 5893 5893 5893 5894 5894 5895 5896 5896 5897 5898 5898 5899 5899 5900 5900 5900 5900 5900 5900 5900 5900 5900 5900 5900 5900
5899 5899 5899 5899 5898 5898 5898 5897 5897 5896 5896 5895 5894 5894 5893 5893 5893 5893 5892 5893 5893 5894 5893 5893 5894 5894 5894 5894 5895 5896 5896 5897 5898 5898 5899 5900 5900 5900 5900 5901 5901 5901 5900 5900 5901 5901 5901 5901 5901
5900 5900 5900 5900 5900 5900 5899 5899 5899 5898 5897 5897 5896 5895 5895 5895 5894 5894 5894 5894 5894 5894 5894 5894 5894 5894 5894 5895 5895 5896 5897 5897 5898 5899 5899 5900 5900 5901 5901 5901 5901 5901 5901 5901 5901 5902 5902 5902 5902
5902 5901 5901 5901 5901 5901 5901 5900 5900 5900 5899 5899 5898 5897 5896 5896 5896 5895 5895 5895 5895 5894 5894 5894 5894 5894 5895 5895 5896 5896 5897 5898 5898 5899 5900 5900 5901 5901 5902 5902 5902 5902 5902 5902 5902 5903 5903 5903 5903
5902 5903 5902 5902 5902 5903 5903 5902 5902 5901 5901 5901 5900 5899 5898 5898 5897 5897 5896 5895 5895 5895 5894 5894 5894 5895 5895 5895 5896 5897 5897 5898 5899 5899 5900 5900 5901 5901 5902 5902 5902 5902 5902 5903 5903 5903 5903 5904 5904
5902 5904 5902 5903 5903 5904 5904 5903 5903 5903 5903 5902 5901 5900 5900 5899 5898 5897 5897 5896 5896 5895 5895 5895 5895 5895 5895 5896 5896 5897 5897 5898 5899 5899 5900 5900 5901 5902 5902 5902 5902 5903 5903 5903 5903 5904 5904 5904 5904
5903 5903 5903 5904 5904 5905 5905 5905 5904 5904 5904 5903 5902 5901 5900 5899 5898 5898 5897 5897 5896 5896 5895 5895 5895 5895 5895 5896 5896 5897 5897 5898 5898 5899 5900 5900 5901 5902 5902 5902 5903 5903 5903 5903 5904 5904 5905 5905 5905
5902 5903 5903 5904 5904 5905 5905 5905 5905 5905 5905 5904 5903 5902 5900 5900 5899 5899 5898 5897 5897 5896 5896 5895 5895 5894 5895 5895 5896 5896 5897 5897 5898 5899 5900 5900 5901 5902 5902 5902 5903 5903 5903 5904 5904 5904 5905 5905 5906
5903 5903 5903 5904 5904 5905 5905 5906 5906 5906 5906 5905 5904 5903 5902 5901 5900 5900 5898 5898 5897 5896 5896 5895 5895 5895 5895 5895 5895 5895 5896 5897 5898 5898 5899 5900 5901 5901 5902 5902 5903 5903 5903 5904 5904 5905 5905 5905 5906
5902 5903 5903 5904 5904 5905 5905 5906 5906 5906 5906 5906 5905 5904 5903 5902 5901 5900 5899 5898 5897 5896 5896 5896 5895 5895 5895 5894 5895 5895 5895 5896 5897 5897 5898 5899 5900 5901 5902 5902 5902 5903 5903 5904 5904 5905 5905 5905 5906
5902 5902 5903 5903 5904 5904 5905 5905 5906 5906 5906 5906 5905 5905 5903 5902 5901 5900 5899 5898 5898 5897 5896 5895 5895 5895 5895 5894 5894 5895 5895 5895 5896 5897 5897 5898 5899 5900 5901 5901 5902 5902 5903 5903 5904 5904 5905 5905 5905
5900 5902 5902 5903 5903 5904 5905 5906 5906 5906 5906 5906 5906 5905 5904 5903 5902 5901 5899 5898 5897 5897 5896 5895 5895 5894 5894 5894 5894 5894 5894 5894 5894 5895 5896 5897 5898 5899 5900 5900 5901 5901 5902 5903 5903 5904 5904 5904 5905
5899 5900 5901 5902 5902 5903 5905 5906 5906 5906 5906 5906 5906 5905 5904 5903 5902 5901 5899 5898 5897 5896 5896 5895 5894 5894 5894 5893 5893 5892 5892 5892 5893 5894 5894 5895 5896 5897 5898 5899 5900 5900 5901 5902 5902 5903 5904 5904 5904
5897 5899 5900 5901 5901 5902 5903 5904 5905 5905 5905 5905 5905 5905 5904 5903 5902 5900 5899 5898 5897 5896 5895 5895 5894 5893 5893 5892 5892 5891 5891 5891 5891 5892 5892 5893 5894 5895 5896 5897 5898 5899 5900 5900 5901 5902 5903 5904 5904
5896 5897 5898 5899 5900 5901 5902 5903 5904 5904 5905 5904 5904 5904 5903 5902 5901 5900 5899 5898 5897 5896 5895 5894 5893 5893 5892 5891 5890 5890 5890 5889 5889 5889 5890 5891 5892 5893 5894 5895 5896 5897 5898 5899 5900 5901 5902 5902 5903
5893 5895 5897 5898 5898 5899 5900 5901 5902 5903 5903 5903 5903 5902 5902 5901 5900 5899 5898 5897 5897 5896 5894 5893 5893 5892 5891 5890 5889 5889 5888 5888 5887 5886 5888 5889 5890 5890 5891 5892 5893 5895 5896 5897 5898 5899 5900 5901 5901
5891 5893 5895 5896 5896 5897 5898 5900 5901 5901 5902 5902 5901 5901 5900 5900 5899 5898 5897 5896 5896 5895 5894 5893 5892 5891 5890 5889 5888 5887 5886 5885 5885 5886 5886 5886 5887 5888 5888 5890 5891 5892 5893 5895 5896 5897 5898 5899 5899
5888 5891 5892 5893 5894 5895 5896 5898 5899 5900 5900 5900 5900 5899 5899 5898 5897 5896 5896 5895 5894 5893 5892 5891 5890 5889 5888 5887 5886 5885 5884 5883 5882 5883 5883 5883 5883 5885 5885 5887 5888 5889 5891 5892 5893 5894 5896 5896 5897
5885 5887 5889 5890 5891 5892 5894 5895 5897 5897 5897 5897 5897 5897 5897 5896 5895 5894 5894 5893 5892 5891 5890 5889 5888 5887 5886 5885 5884 5882 5881 5880 5880 5880 5880 5879 5880 5881 5882 5883 5884 5886 5888 5889 5890 5891 5892 5893 5894
5882 5883 5885 5887 5888 5890 5891 5892 5895 5895 5895 5895 5895 5895 5895 5894 5894 5893 5891 5891 5890 5889 5888 5887 5886 5884 5883 5882 5881 5879 5878 5877 5876 5876 5876 5877 5877 5878 5879 5880 5881 5883 5884 5885 5887 5888 5889 5890 5891
5877 5879 5881 5883 5885 5887 5889 5890 5891 5892 5892 5892 5893 5892 5892 5892 5891 5890 5889 5888 5887 5887 5886 5885 5884 5882 5881 5879 5878 5876 5875 5873 5873 5873 5873 5874 5875 5875 5876 5877 5878 5879 5880 5881 5883 5884 5885 5886 5887
5872 5875 5877 5879 5881 5884 5886 5887 5889 5889 5889 5889 5890 5890 5889 5888 5888 5888 5886 5885 5885 5884 5883 5882 5881 5880 5878 5877 5875 5873 5872 5871 5871 5871 5871 5871 5872 5873 5873 5874 5875 5876 5877 5878 5879 5880 5881 5882 5883
5869 5872 5875 5877 5879 5881 5882 5883 5886 5886 5886 5886 5886 5887 5886 5886 5886 5885 5884 5883 5882 5881 5880 5880 5878 5877 5875 5874 5872 5871 5870 5869 5868 5868 5868 5869 5869 5870 5870 5871 5872 5873 5873 5874 5875 5876 5877 5878 5879
5864 5867 5870 5873 5874 5876 5878 5880 5882 5882 5883 5883 5884 5884 5884 5884 5883 5882 5882 5881 5879 5878 5877 5876 5875 5873 5872 5871 5870 5868 5867 5866 5865 5865 5865 5866 5866 5867 5867 5867 5868 5869 5869 5870 5871 5872 5872 5873 5874
5859 5862 5865 5868 5870 5872 5874 5876 5879 5879 5880 5880 5881 5881 5881 5881 5880 5879 5878 5877 5875 5874 5874 5873 5872 5870 5869 5868 5866 5865 5864 5863 5863 5863 5863 5863 5863 5863 5864 5864 5864 5865 5865 5866 5866 5867 5867 5868 5869
5855 5858 5860 5863 5866 5868 5870 5875 5875 5876 5876 5877 5878 5878 5878 5877 5877 5877 5875 5874 5872 5871 5871 5870 5869 5867 5866 5864 5863 5862 5861 5861 5861 5860 5860 5860 5860 5860 5860 5860 5860 5860 5860 5861 5861 5862 5862 5863 5864
5849 5853 5856 5860 5862 5864 5866 5872 5871 5872 5873 5873 5874 5875 5875 5874 5874 5873 5873 5871 5870 5869 5868 5867 5866 5864 5863 5862 5861 5860 5859 5858 5858 5858 5858 5857 5857 5857 5857 5857 5856 5856 5856 5856 5856 5856 5857 5857 5858
Wind_Speed
12 12 12 14 15 16 17 19 18 17 15 14 13 12 10 9 8 7 6 6 5 5 5 6 7 8 9 10 10 10 10 10 10 9 9 9 9 9 9 8 8 8 8 8 7 7 7 7 7
11 11 12 13 15 15 17 18 18 17 15 14 14 13 11 9 8 7 6 6 5 4 4 5 6 7 8 8 8 9 9 9 9 9 9 9 9 9 8 8 8 8 7 7 7 7 7 7 7
10 11 11 12 14 15 16 17 17 17 16 15 14 13 11 9 8 7 6 6 4 3 4 4 5 6 6 7 7 7 8 8 9 9 9 9 8 8 8 8 8 8 7 7 7 6 6 6 6
9 9 10 12 14 14 16 16 16 16 16 15 14 14 12 9 7 6 5 5 4 3 3 4 4 5 5 6 6 6 7 7 7 8 8 8 8 8 8 8 8 7 7 6 6 6 6 6 6
7 8 10 11 12 13 15 15 16 16 16 15 14 14 12 10 7 6 6 5 4 3 3 3 4 4 4 5 5 5 6 6 6 6 7 7 7 7 8 8 7 7 6 6 5 5 5 5 5
6 7 8 10 11 12 13 15 15 15 15 14 14 13 12 10 8 7 6 5 3 2 2 3 3 3 3 4 4 4 5 5 5 5 5 6 6 6 7 7 7 6 6 5 5 4 4 5 5
4 5 7 9 9 11 13 14 14 15 15 14 14 13 12 10 8 7 6 4 3 2 2 3 3 3 3 3 3 4 4 4 4 4 4 4 5 5 6 6 6 6 5 4 4 4 4 4 4
3 4 6 7 8 10 11 13 13 14 14 15 14 14 12 10 8 6 6 5 4 2 2 2 3 3 3 3 3 2 3 3 3 2 3 3 3 4 5 5 5 5 5 4 4 4 4 4 4
1 3 4 6 7 8 10 12 12 13 13 14 14 14 12 11 8 6 6 5 4 3 3 3 2 2 2 2 2 2 2 2 2 1 2 2 2 2 3 4 4 4 3 3 3 3 3 4 4
1 2 4 5 6 7 9 10 12 12 13 14 14 14 13 11 9 7 6 6 5 4 4 3 3 1 1 2 1 1 2 2 1 1 0 1 1 1 1 2 2 3 2 2 2 2 2 3 3
2 3 3 4 5 7 8 9 10 12 12 13 14 14 13 11 9 8 7 7 6 5 4 3 3 1 1 1 2 2 2 3 2 2 1 0 0 0 0 1 1 2 2 1 1 1 1 2 2
4 4 4 4 5 6 6 7 9 10 12 12 13 13 13 11 10 9 8 8 6 5 4 3 3 2 1 0 1 3 3 4 4 3 2 2 2 1 1 1 1 0 1 1 1 1 0 1 1
6 6 5 6 5 6 6 6 7 8 10 10 12 13 12 11 10 9 8 8 8 6 5 4 3 2 1 1 2 3 4 4 4 4 4 3 3 3 2 2 2 1 1 1 1 1 1 1 0
7 6 6 6 6 6 6 6 6 7 8 9 11 11 11 12 11 10 8 8 8 7 6 5 4 3 2 3 3 4 4 5 6 6 6 5 4 4 4 4 3 3 3 2 2 2 2 2 1
9 8 8 8 7 6 6 5 6 6 7 8 9 10 10 11 11 10 10 9 9 8 7 7 6 4 4 3 3 4 4 5 6 6 6 6 6 6 5 5 5 4 4 3 4 3 3 2 2
11 10 10 9 9 8 6 5 5 5 6 6 8 8 9 10 11 10 10 9 8 8 8 7 7 6 5 5 4 5 5 5 7 6 7 7 7 7 7 7 6 6 6 5 5 5 5 4 3
13 12 11 11 10 8 7 5 5 5 5 6 7 8 9 10 11 10 9 9 8 8 8 8 8 7 7 6 5 6 6 6 7 8 9 9 9 9 9 9 8 8 8 7 6 7 7 6 5
15 13 13 13 12 11 9 7 6 5 6 6 7 7 8 10 11 10 9 9 8 9 9 9 8 8 7 7 6 7 7 7 8 10 9 9 10 10 10 11 11 10 10 9 8 8 8 8 7
18 16 15 14 14 12 11 9 8 6 6 6 6 7 8 10 10 10 9 9 9 9 9 9 8 8 8 8 8 9 9 8 9 9 10 11 11 11 11 12 12 12 12 11 10 10 10 10 9
19 18 16 16 16 14 12 11 9 8 7 7 6 6 8 10 9 10 11 9 9 10 9 9 8 9 9 9 10 10 9 9 10 10 11 12 12 13 13 14 14 13 13 13 12 12 11 11 11
21 20 19 19 18 17 15 13 12 10 9 8 7 7 8 10 10 10 11 10 10 10 10 9 9 10 11 11 11 10 10 11 10 11 12 13 13 14 15 15 15 15 14 14 14 13 13 13 13
22 21 21 21 21 20 18 16 12 12 11 9 9 8 9 10 11 11 12 11 10 10 10 10 10 11 11 12 12 12 12 12 12 11 11 12 13 14 14 14 15 15 16 16 16 16 15 15 14
23 24 24 24 23 22 20 18 14 14 12 10 9 9 10 11 12 12 12 12 11 10 10 10 10 11 12 12 13 13 13 13 12 12 12 11 13 13 14 14 14 15 16 17 17 17 18 17 17
25 26 27 26 25 24 21 20 16 15 13 12 11 11 12 13 13 13 12 12 12 11 10 11 11 12 13 13 13 14 13 11 10 11 11 12 13 12 13 13 15 16 16 17 17 18 19 19 18
28 27 27 27 26 24 21 21 18 16 15 13 12 11 12 12 12 13 13 12 12 12 12 12 12 13 13 13 13 13 12 11 10 10 10 11 12 12 13 13 14 15 16 17 17 18 19 20 20
28 28 27 27 25 23 22 22 18 17 15 14 12 11 10 11 11 12 12 13 13 13 13 13 13 13 13 13 13 13 12 11 11 11 11 11 12 13 14 14 15 15 16 17 18 19 20 20 21
29 28 27 27 26 25 23 21 18 17 16 15 14 13 12 12 11 11 12 13 13 12 12 13 13 13 13 14 13 13 12 11 10 10 11 11 11 12 13 14 16 16 16 17 18 19 20 21 21
29 28 28 28 27 25 23 20 18 17 16 16 15 13 13 13 12 12 13 13 13 13 13 13 13 13 13 13 13 13 12 10 9 10 10 11 12 13 13 15 16 16 16 17 17 18 19 21 21
29 29 28 28 27 25 23 19 17 17 16 15 14 14 13 12 12 12 12 13 13 13 12 12 12 12 12 12 12 12 11 10 9 9 9 11 11 12 13 15 16 16 17 18 18 19 20 21 21
30 29 27 27 26 24 22 18 16 15 14 14 14 13 12 12 12 11 12 13 12 12 11 11 12 12 12 11 11 10 10 10 10 9 10 11 11 12 14 14 14 15 17 18 19 20 20 21 22
Wind_Direction
82 79 74 75 74 73 74 73 69 62 62 64 65 66 68 70 74 82 82 79 76 86 96 93 89 88 88 87 85 81 77 72 69 67 65 62 60 59 59 60 62 65 67 68 72 73 75 77 78
80 79 75 73 73 71 70 71 68 64 61 59 60 62 64 68 72 79 83 80 76 79 92 93 90 87 85 85 85 82 77 73 69 67 65 62 58 56 55 55 58 59 63 67 71 73 74 76 79
82 76 75 75 74 72 69 69 65 64 61 57 57 57 58 63 69 75 81 83 82 86 91 89 86 83 82 85 89 87 80 74 70 66 64 60 55 53 52 53 56 57 61 67 71 73 73 76 80
80 73 70 72 72 72 68 67 66 61 55 52 52 52 52 56 60 70 80 86 86 88 94 91 86 81 83 88 91 91 85 77 72 67 63 59 55 53 52 51 54 56 60 67 72 73 75 77 80
82 72 64 64 70 69 67 68 66 58 50 48 49 49 48 52 57 65 75 84 85 86 93 94 95 92 89 90 91 94 90 81 74 68 63 59 55 53 50 50 50 53 57 66 72 74 78 79 83
87 74 66 65 70 74 73 69 62 56 50 46 48 51 49 50 54 65 70 76 85 90 98 100 98 97 100 102 103 101 95 86 79 71 63 59 55 52 49 47 47 51 56 64 69 71 76 79 82
87 75 67 62 68 71 70 68 62 55 48 43 45 49 49 49 49 56 66 71 82 94 96 96 97 97 100 108 114 110 103 94 86 76 65 57 53 49 46 46 46 49 55 64 66 69 73 76 81
85 75 66 54 62 60 63 63 58 49 43 41 40 40 42 42 41 44 55 60 62 72 78 86 97 103 106 111 118 122 120 113 98 79 60 53 50 49 45 44 44 44 49 63 72 71 67 71 79
83 72 52 41 47 53 57 57 54 46 40 35 33 33 34 34 34 37 43 50 56 61 62 69 83 107 122 133 137 140 152 144 129 100 61 54 51 51 48 42 42 39 48 64 73 71 66 70 78
351 28 18 19 27 40 46 50 50 45 41 33 29 28 27 29 31 33 34 37 43 48 55 64 73 90 136 161 185 200 198 186 180 175 120 68 54 50 62 52 43 38 51 66 71 64 66 70 76
293 324 344 360 18 33 40 43 44 40 39 35 31 29 25 28 31 31 30 32 34 34 37 44 52 58 129 196 230 230 217 216 214 209 214 227 261 10 110 88 58 42 52 71 79 82 76 70 79
274 297 315 328 348 10 25 31 32 32 35 35 31 29 25 20 22 25 27 27 24 26 26 20 24 21 30 260 263 235 226 225 225 221 227 237 228 223 234 191 168 85 98 108 146 175 154 114 85
268 281 295 310 326 346 359 15 24 26 31 29 23 24 25 19 14 14 16 16 16 19 17 7 3 4 351 319 278 245 233 233 232 228 231 230 228 237 250 248 242 234 208 196 187 198 203 205 225
260 268 278 292 307 324 340 357 9 20 22 21 18 20 23 18 13 10 9 9 10 9 4 356 1 355 328 318 301 266 252 247 240 239 239 244 250 248 256 260 255 250 230 217 205 213 223 224 221
248 253 261 273 284 297 312 332 348 357 8 12 15 17 19 14 10 9 5 3 2 1 357 352 349 343 323 313 300 280 271 253 245 245 239 248 250 251 253 255 251 251 247 237 230 229 228 222 226
242 244 248 258 271 284 292 305 312 335 354 4 9 10 12 8 2 1 359 358 358 356 352 349 340 332 322 309 303 295 284 261 249 248 243 248 252 253 251 250 252 252 254 255 247 235 230 230 234
237 237 241 250 260 269 279 282 294 317 339 352 356 360 2 0 356 354 353 353 352 348 345 346 340 330 326 322 306 300 299 286 262 250 247 247 252 251 250 253 255 254 255 257 257 247 240 238 238
235 235 236 244 255 260 267 273 281 303 324 337 342 346 354 353 354 351 346 342 343 344 340 336 332 325 324 325 317 310 305 296 274 253 252 253 256 252 250 251 252 251 253 253 253 252 246 243 243
234 236 238 243 253 258 263 268 276 290 308 323 336 336 342 345 347 348 344 337 336 335 332 327 325 320 315 314 307 304 303 294 283 264 255 256 259 256 253 249 251 250 249 248 248 251 250 246 245
234 236 237 240 248 256 262 267 274 285 296 302 315 317 325 334 336 336 336 327 323 324 323 318 315 311 307 301 299 299 297 290 283 268 257 256 256 256 251 251 250 253 250 246 246 248 249 248 247
234 237 237 238 247 256 263 270 278 280 286 293 298 301 311 318 318 322 323 326 318 315 312 309 307 305 303 299 297 296 290 288 283 274 265 258 250 250 253 252 249 251 251 246 245 247 248 249 248
233 235 236 238 244 252 262 269 276 277 285 291 291 295 301 308 308 312 313 312 314 311 308 306 300 297 298 299 298 295 288 284 280 276 271 264 255 248 247 248 248 248 247 245 244 245 247 248 251
232 234 235 238 244 250 260 270 274 278 284 285 287 293 297 304 304 304 305 303 302 302 304 303 298 296 298 298 299 296 290 286 278 274 268 264 258 250 249 249 250 250 248 245 245 247 248 249 251
231 233 235 239 245 250 259 268 272 279 283 281 280 290 298 301 302 298 296 297 294 297 300 301 299 298 298 300 300 297 293 293 287 276 268 262 258 252 252 251 250 250 251 249 248 248 248 250 251
231 234 236 240 245 253 259 263 268 275 278 280 282 289 294 301 305 302 297 294 290 293 297 296 300 301 303 304 304 302 296 293 288 279 271 263 257 253 255 254 253 253 253 251 250 250 250 252 253
234 236 239 244 249 255 257 260 266 269 272 274 278 285 291 300 308 307 301 298 293 290 292 292 295 297 300 302 303 301 297 292 287 277 272 264 257 256 259 256 257 257 256 254 254 255 254 253 253
232 234 238 243 249 253 256 261 263 265 266 267 273 280 288 296 300 304 302 299 295 291 290 292 292 293 296 298 301 302 298 289 282 276 270 264 260 259 261 258 259 261 260 259 259 257 257 256 256
229 231 236 241 248 253 256 259 262 263 264 265 271 278 285 290 295 301 301 298 295 293 294 293 294 298 299 296 297 298 297 288 282 276 272 267 264 263 265 264 262 262 261 258 259 260 258 256 257
230 232 235 240 246 251 256 258 262 264 264 264 266 273 283 288 293 299 306 306 297 292 292 294 297 298 300 297 296 296 295 290 283 277 272 265 261 265 267 268 263 263 263 261 260 258 258 257 257
229 232 236 240 246 251 255 255 256 261 263 263 266 271 277 282 289 296 304 305 301 297 295 297 299 302 300 295 295 293 289 286 278 274 271 268 267 270 271 270 268 268 267 264 261 261 260 258 258